Fort Lewis, WA
on Thursday, February 7, 2013

Thursday
Previous Day Next Day
Daily Summary
 ActualAverage (KOLM)Record (KOLM)
Temperature
Mean Temperature °F 41°F  
Max Temperature 48°F 48°F 63°F (1954)
Min Temperature 27°F 33°F 7°F (1989)
Degree Days
Heating Degree Days 26 24  
Month to date heating degree days 169  
Since 1 July heating degree days 3220  
Cooling Degree Days 0 0  
Month to date cooling degree days 0  
Year to date cooling degree days 0  
Moisture
Dew Point 35°F   
Average Humidity 79    
Maximum Humidity 97    
Minimum Humidity 56    
Precipitation
Precipitation 0.05 in 0.21 in 1.98 in (1996)
Month to date precipitation 1.43  
Year to date precipitation 9.27  
Wind
Wind Speed 9 mph   
Max Wind Speed 17 mph   
Max Gust Speed 25 mph   
Visibility 10 miles   
Events Rain   

Key: T is trace of precipitation, MM is missing value
Source: NWS Daily Summary
Time(PST)TemperatureDew PointHumidity Pressure Visibility Wind DirectionWind SpeedGust SpeedPrecipitationEvents Conditions
12:08 AM 46.4°F 37.4°F 71% 29.81 in 10.0 miles SSE 6.9 mph - N/A   Light Drizzle
12:43 AM 44.6°F 41.0°F 87% 29.83 in 10.0 miles SSE 17.3 mph 25.3 mph N/A Rain Light Rain
12:58 AM 43.2°F 40.5°F 90% 29.86 in 10.0 miles SSE 13.8 mph 20.7 mph 0.04 in Rain Light Rain
1:03 AM 42.8°F 39.2°F 87% 29.84 in 10.0 miles SSE 15.0 mph 20.7 mph N/A Rain Light Rain
1:08 AM 42.8°F 39.2°F 87% 29.84 in 10.0 miles SSE 12.7 mph - N/A   Mostly Cloudy
1:58 AM 41.2°F 38.5°F 90% 29.88 in 10.0 miles SSE 12.7 mph - 0.01 in   Mostly Cloudy
2:58 AM 41.7°F 36.7°F 82% 29.90 in 10.0 miles SSE 13.8 mph - N/A   Mostly Cloudy
3:38 AM 41.0°F 35.6°F 81% 29.90 in 10.0 miles SSE 10.4 mph 21.9 mph N/A   Mostly Cloudy
3:43 AM 41.0°F 35.6°F 81% 29.91 in 10.0 miles SSE 11.5 mph - N/A   Mostly Cloudy
3:53 AM 41.0°F 35.6°F 81% 29.91 in 10.0 miles SSE 11.5 mph - N/A   Mostly Cloudy
3:58 AM 41.7°F 36.3°F 81% 29.93 in 10.0 miles SSE 12.7 mph - N/A   Mostly Cloudy
4:03 AM 41.0°F 35.6°F 81% 29.91 in 10.0 miles SSE 15.0 mph - N/A   Overcast
4:08 AM 41.0°F 35.6°F 81% 29.92 in 10.0 miles SSE 15.0 mph - N/A   Overcast
4:38 AM 41.0°F 35.6°F 81% 29.93 in 10.0 miles SSE 10.4 mph - N/A   Mostly Cloudy
4:43 AM 41.0°F 35.6°F 81% 29.93 in 10.0 miles SSE 10.4 mph - N/A   Mostly Cloudy
4:58 AM 41.2°F 36.1°F 82% 29.96 in 10.0 miles SSE 6.9 mph - N/A   Mostly Cloudy
5:03 AM 41.0°F 35.6°F 81% 29.94 in 10.0 miles SSE 4.6 mph - N/A   Mostly Cloudy
5:38 AM 41.0°F 37.4°F 87% 29.95 in 10.0 miles SSE 6.9 mph - N/A   Overcast
5:58 AM 40.5°F 36.9°F 87% 29.97 in 10.0 miles SSE 6.9 mph - N/A   Overcast
6:58 AM 39.4°F 36.1°F 88% 29.99 in 10.0 miles SSE 8.1 mph - N/A   Scattered Clouds
7:58 AM 39.6°F 36.5°F 89% 30.00 in 10.0 miles SSE 5.8 mph - N/A   Mostly Cloudy
8:58 AM 41.0°F 37.0°F 86% 30.02 in 10.0 miles SSE 5.8 mph - N/A   Scattered Clouds
9:58 AM 43.7°F 36.1°F 75% 30.03 in 10.0 miles SSE 6.9 mph - N/A   Partly Cloudy
10:58 AM 44.4°F 35.8°F 72% 30.04 in 10.0 miles SE 2.3 mph - N/A   Mostly Cloudy
11:03 AM 44.6°F 35.6°F 71% 30.02 in 10.0 miles SE 5.8 mph - N/A   Mostly Cloudy
11:58 AM 46.9°F 35.2°F 64% 30.04 in 10.0 miles Calm Calm - N/A   Mostly Cloudy
12:03 PM 46.4°F 35.6°F 66% 30.02 in 10.0 miles SE 1.2 mph - N/A   Overcast
12:13 PM 48.2°F 35.6°F 62% 30.02 in 10.0 miles SSE 5.8 mph - N/A   Overcast
12:23 PM 46.4°F 35.6°F 66% 30.02 in 10.0 miles SSE 4.6 mph - N/A   Mostly Cloudy
12:33 PM 46.4°F 33.8°F 62% 30.02 in 10.0 miles ESE 4.6 mph - N/A   Scattered Clouds
12:58 PM 48.4°F 33.4°F 56% 30.04 in 10.0 miles Calm Calm - N/A   Scattered Clouds
1:58 PM 45.5°F 35.6°F 68% 30.04 in 10.0 miles North 5.8 mph - N/A   Mostly Cloudy
2:58 PM 46.0°F 34.7°F 65% 30.04 in 10.0 miles Calm Calm - N/A   Clear
3:58 PM 46.8°F 34.2°F 62% 30.05 in 10.0 miles North 2.3 mph - N/A   Clear
4:58 PM 46.2°F 33.4°F 61% 30.07 in 10.0 miles NE 1.2 mph - N/A   Clear
5:58 PM 42.1°F 33.6°F 72% 30.08 in 10.0 miles Calm Calm - N/A   Clear
6:58 PM 37.6°F 33.8°F 86% 30.10 in 10.0 miles ESE 1.2 mph - N/A   Clear
7:58 PM 35.6°F 33.4°F 92% 30.12 in 10.0 miles Calm Calm - N/A   Clear
8:58 PM 34.5°F 32.9°F 94% 30.14 in 10.0 miles Calm Calm - N/A   Clear
9:58 PM 31.6°F 30.6°F 96% 30.16 in 10.0 miles ESE 3.5 mph - N/A   Clear
10:58 PM 29.1°F 28.4°F 97% 30.18 in 10.0 miles ESE 3.5 mph - N/A   Clear
11:58 PM 27.7°F 27.0°F 97% 30.20 in 10.0 miles ESE 3.5 mph - N/A   Clear
Moon Phase
Feb. 07 Feb. 10 Feb. 17 Feb. 25 Mar. 04
Sunrise:07:26 AM (PST) Moon Rise:05:17 AM (PST)2/7
Sunset:05:22 PM (PST) Moon Set:02:48 PM (PST)2/7

Copyright © 2014 The Weather Underground, Inc.